星链-5024 (STARLINK-5024 )

导读 | 星芒AI

STARLINK-5024 是 SpaceX 星链计划中的一颗低轨道通信卫星,属于第 14 批组网发射的星链卫星之一。该卫星旨在为全球用户提供高速互联网服务,尤其关注网络覆盖不足的地区。它运行在约 550 公里的近地轨道,采用先进的通信技术,支持高带宽和低延迟传输。作为星链星座的一部分,STARLINK-5024 有助于增强全球互联网连接能力,推动数字包容性发展。

基本信息
目录编号:
53901
目录名称:
STARLINK-5024
国际标识:
2022-119R
轨道中心:
EARTH
卫星名称:
星链-5024
卫星全名:
星链-5024 (STARLINK-5024 )
卫星状态:
在轨 (已飞行1120 天)
发射日期:
2022-09-24 UTC
国别 :
美国 (US)
星等 :
--
轨道信息
数据来源 国际轨道数据
星历时间: 2025-10-17T21:18:03+0800
14小时前
查看轨道信息
半长轴: 6778.72km
偏心率: 0.0001161
轨道倾角: 53.217°
近地点辐角 106.472°
升交点赤经 232.833°
平近点角 253.643°
近地点: 399.797km
远地点: 401.373km
周期: 92.572分钟
每日圈数: 15.555402
详细信息
固有亮度:
5
最大亮度:
2.5
卫星平台:
Starlink v1.5
覆盖范围:
全球
运营商:
太空探索技术公司
运营商所在国:
美国
制造商(研发单位):
太空探索技术公司
制造商所在国:
美国
使用方式:
暂无
卫星简介
星链(Starlink)计划是由太空探索技术公司(SpaceX)提出的一个巨型低轨卫星互联网星座项目,计划在2019年至2024年间在太空搭建由约1.2万颗卫星组成的“星链”网络,其中1584颗将部署在地球上空550千米处的近地轨道,并从2020年开始工作。该卫星仍在工作。
2D轨道图
3D轨道图
轨道高度分析图
轨道倾角分析图
轨道综合分析图
查看轨道综合分析图